Weather in Moss

Norway     59°26′00″N   10°39′34″E
temp.,
°C
wind,
m/s
gust,
m/s
humid.,
%
clouds,
%
prec.,
mm/h
press.,
hPa
HPBL,
m
30 november, tue
tue3001:00−2s2493100 0.7 995271
04:00−3ese5993100 2.0 992439
07:00−3ene4788100 3.3 993520
10:00−3nne357998 0.1 995411
13:00−3nne337691 0.1 996399
16:00−4nne118776 0.0 997178
19:00−4nw1186100 0.0 998197
22:00−5wnw1288100 0.0 998181
1 december, wed
wed101:00−5n1188100 0.0 997145
04:00−5ne2291100 0.0 996122
07:00−6nne2390100 0.0 994151
10:00−5nne3683100 0.0 994226
13:00−4nne4774100 0.0 992299
16:00−5nne487696 0.0 992274
19:00−5n4773100 0.0 992253
22:00−5n3771100 0.0 992260
2 december, thu
thu201:00−5n2572100 0.0 992191
04:00−5n237665 0.0 992121
07:00−6n23823 0.0 993115
10:00−6n12774 0.0 995122
13:00−4nnw11660 0.0 995143
16:00−6e11785 0.0 995135
19:00−6nne2281100 0.0 99689
22:00−6nne3475100 0.0 997144
3 december, fri
fri301:00−6nne4772100 0.0 997242
04:00−6nne5980100 0.0 998338
07:00−6nne5985100 0.0 998431
10:00−6n5993100 1.2 999461
13:00−5nne5893100 3.5 999448
16:00−6nne5890100 0.6 999385
19:00−5n5795100 2.2 999374
22:00−5nne4795100 1.8 999415
4 december, sat
sat401:00−4nne4794100 3.1 1000439
04:00−4ne4993100 1.2 1001491
07:00−4ne5989100 1.8 1003525
10:00−4ne598798 0.3 1005554
13:00−3nne4879100 0.4 1007599
16:00−5nne4885100 0.0 1009402
19:00−6nne478999 0.0 1011313
22:00−8nne469356 0.0 1013199